Content
SEND FEEDBACK

Daily
Averages
Monthly
Summary
Sweden

OREBRO, SWEDEN


Home > Europe > Sweden
Elevation: 31 meters     Latitude: 59 15N     Longitude: 015 13E

WEATHER
 
SELECT A DAY
Number of Records: 71,229;   Date Range: 1/10/97 - 12/19/14
 
SHARE

PRINT THIS DATA

[ ← Previous Day ]
WEATHER ALMANAC - 13 FEBRUARY, 2013
[ Next Day → ]
[ °F ]   °C
Weather ElementAverageHighLow
Temperature-3.7 °C-3 °C (1:50 am)-6 °C (8:50 pm)
Dewpoint-4.6 °C-4 °C (1:50 am)-6 °C (8:20 pm)
Humidity93.9 %100 % (2:20 am)93 % (12:50 am)
Barometer1026.8 hPa1029.1 hPa (2:50 pm)1022 hPa (12:50 am)
Wind Speed6.9 km/h14.8 km/h (1:20 am)
Weather ElementAverage
Visibility9.7 km
Wind DirectionENE (52.8 °)

Weather ElementTotal
Precipitation---
Heating Degree Days22.8 (Base 18.3)
Averaged from 47 records on 13 February, 2013
WEATHER CONDITIONS BREAKOUT
WIND DIRECTION BREAKOUT
WEATHER BY HOUR - 13 FEBRUARY, 2013
[ °F ]   °C
Local TimeTemperatureDewpointHumidityBarometerVisibilityWind DirectionWind SpeedGust SpeedPrecipitationEventsConditions
12:50 AM-4 °C-5 °C93 %1022 hPa10 kmNorth (10°)13 km/hOvercast
1:20 AM-4 °C-5 °C93 %1022 hPa10 kmNorth (10°)14.8 km/hSnowSnow Grains
1:50 AM-3 °C-4 °C93 %1022 hPa10 kmNorth (10°)14.8 km/hSnowSnow Grains
2:20 AM-4 °C-4 °C100 %1022 hPa10 kmNNE (20°)11.1 km/hSnowSnow Grains
2:50 AM-4 °C-5 °C93 %1022 hPa10 kmNNE (20°)11.1 km/hOvercast
3:20 AM-4 °C-4 °C100 %1022 hPa10 kmNorth (10°)7.4 km/hOvercast
3:50 AM-4 °C-5 °C93 %1022 hPa10 kmNorth (360°)5.6 km/hOvercast
4:20 AM-4 °C-5 °C93 %1023 hPa10 kmVariable1.9 km/hOvercast
4:50 AM-4 °C-5 °C93 %1023 hPa10 kmNNE (20°)5.6 km/hOvercast
5:20 AM-4 °C-5 °C93 %1023 hPa10 kmNNE (30°)5.6 km/hOvercast
5:50 AM-4 °C-5 °C93 %1024 hPa10 kmNE (40°)5.6 km/hOvercast
6:20 AM-4 °C-5 °C93 %1024 hPa10 kmCalmOvercast
6:50 AM-4 °C-5 °C93 %1024 hPa10 kmNE (40°)3.7 km/hOvercast
7:20 AM-4 °C-5 °C93 %1025.1 hPa10 kmVariable3.7 km/hOvercast
7:50 AM-4 °C-5 °C93 %1025.1 hPa10 kmCalmOvercast
8:20 AM-4 °C-5 °C93 %1025.1 hPa10 kmCalmOvercast
8:50 AM-3 °C-4 °C93 %1026.1 hPa10 kmVariable3.7 km/hOvercast
9:20 AM-3 °C-4 °C93 %1026.1 hPa10 kmVariable3.7 km/hOvercast
9:50 AM-3 °C-4 °C93 %1027.1 hPa10 kmSE (130°)7.4 km/hOvercast
10:20 AM-3 °C-4 °C93 %1027.1 hPa10 kmSSE (150°)7.4 km/hOvercast
10:50 AM-3 °C-4 °C93 %1027.1 hPa10 kmSE (140°)7.4 km/hOvercast
11:20 AM-3 °C-4 °C93 %1027.1 hPa10 kmVariable3.7 km/hOvercast
11:50 AM-3 °C-4 °C93 %1028.1 hPa10 kmEast (90°)7.4 km/hOvercast
12:20 PM-3 °C-4 °C93 %1028.1 hPa10 kmSE (130°)7.4 km/hOvercast
12:50 PM-3 °C-4 °C93 %1028.1 hPa10 kmSE (130°)5.6 km/hOvercast
1:20 PM-3 °C-4 °C93 %1028.1 hPa10 kmSSE (160°)9.3 km/hOvercast
1:50 PM-4 °C-4 °C100 %1028.1 hPa10 kmNE (50°)7.4 km/hOvercast
2:20 PM-3 °C-4 °C93 %1028.1 hPa10 kmNE (40°)5.6 km/hOvercast
2:50 PM-3 °C-4 °C93 %1029.1 hPa10 kmENE (70°)5.6 km/hMostly Cloudy
3:20 PM-3 °C-4 °C93 %1029.1 hPa10 kmNNE (20°)7.4 km/hOvercast
3:50 PM-3 °C-4 °C93 %1029.1 hPa10 kmNorth (10°)9.3 km/hOvercast
4:20 PM-3 °C-4 °C93 %1029.1 hPa10 kmNNE (30°)7.4 km/hOvercast
4:50 PM-3 °C-4 °C93 %1029.1 hPa10 kmNNE (20°)7.4 km/hOvercast
5:20 PM-3 °C-4 °C93 %1029.1 hPa10 kmNNE (20°)7.4 km/hOvercast
5:50 PM-3 °C-4 °C93 %1029.1 hPa10 kmNNE (20°)7.4 km/hMostly Cloudy
6:20 PM-3 °C-4 °C93 %1029.1 hPa10 kmENE (70°)9.3 km/hMostly Cloudy
6:50 PM-3 °C-4 °C93 %1029.1 hPa10 kmNE (50°)5.6 km/hMostly Cloudy
7:20 PM-4 °C-5 °C93 %1029.1 hPa10 kmNE (50°)5.6 km/hSnowLight Snow
7:50 PM-4 °C-5 °C93 %1029.1 hPa9 kmNNE (20°)5.6 km/hSnowLight Snow
8:20 PM-5 °C-6 °C93 %1029.1 hPa8 kmNNE (30°)7.4 km/hSnowLight Snow
8:50 PM-6 °C-6 °C100 %1029.1 hPa4 kmNorth (10°)9.3 km/hMostly Cloudy
9:20 PM-5 °C-6 °C93 %1029.1 hPa6 kmNNE (20°)11.1 km/hMostly Cloudy
9:50 PM-5 °C-6 °C93 %1029.1 hPa9 kmNorth (360°)7.4 km/hSnowLight Snow
10:20 PM-5 °C-6 °C93 %1029.1 hPa8 kmNNE (20°)7.4 km/hSnowLight Snow Grains
10:50 PM-5 °C-5 °C100 %1029.1 hPa9 kmNNE (20°)9.3 km/hSnowLight Snow Grains
11:20 PM-5 °C-5 °C100 %1029.1 hPa10 kmNNE (30°)7.4 km/hSnowLight Snow
11:50 PM-4 °C-5 °C93 %1029.1 hPa10 kmNNE (20°)7.4 km/hSnowSnow Grains
Hourly data recorded from ESOE, located 0 kilometers away from Orebro, Sweden







STORIES FROM OUR PARTNERS